Tracking 19219 objects as of 20-Jul-2018
HD Live streaming from Space Station
objects crossing your sky now

LEMUR 2 ROBMOORE

Track LEMUR 2 ROBMOORE now!
10-day predictions
LEMUR 2 ROBMOORE is classified as:


NORAD ID: 42754
Int'l Code: 2017-019D
Perigee: 478.8 km
Apogee: 492.4 km
Inclination: 51.6 °
Period: 94.2 minutes
Semi major axis: 6856 km
RCS: Unknown
Launch date: April 18, 2017
Source: United States (US)
Launch site: AIR FORCE EASTERN TEST RANGE (AFETR)
aabbcc
Your satellite tracking list
Your tracking list is empty




NASA's NSSDC Master Catalog

Two Line Element Set (TLE):
1 42754U 17019D   18201.67760957  .00000524  00000-0  30849-4 0  9998
2 42754  51.6416 289.7833 0009916 332.3979  27.6474 15.29116044 62212
Source of the keplerian elements: AFSPC